EW3511 Weather Reports


Display with metric or nautical units.
time (UTC)temp
F
wind
direction
speed
MPH
gust
MPH
rain 1hr
in
rain 24hr
in
rain mn
in
humidity
%
barometer
mb
20240521105123 61 304 3.0 9.0 0.00 0.00 0.00 79 1007.3
20240521104123 61 299 2.0 8.0 0.00 0.00 0.00 79 1007.1
20240521103103 61 318 3.0 7.0 0.00 0.00 0.00 79 1007.2
20240521102103 61 16 2.0 6.0 0.00 0.00 0.00 79 1007.1
20240521101104 62 0 2.0 7.0 0.00 0.00 0.00 78 1007.0
20240521100105 62 318 2.0 5.0 0.00 0.00 0.00 78 1007.0
20240521095125 62 340 3.0 7.0 0.00 0.00 0.00 77 1006.9
20240521094105 63 342 3.0 7.0 0.00 0.00 0.00 78 1006.8
20240521093034 63 331 2.0 7.0 0.00 0.00 0.00 77 1006.8
20240521092034 63 23 2.0 7.0 0.00 0.00 0.00 77 1006.8
20240521091055 63 354 2.0 6.0 0.00 0.00 0.00 76 1006.6
20240521090035 64 3 2.0 9.0 0.00 0.00 0.00 76 1006.4
20240521085035 64 330 2.0 8.0 0.00 0.00 0.00 76 1006.4
20240521084036 64 346 3.0 6.0 0.00 0.00 0.00 77 1006.3
20240521083036 64 333 3.0 8.0 0.00 0.00 0.00 77 1006.3
20240521082037 63 357 2.0 6.0 0.00 0.00 0.00 77 1006.4
20240521081037 63 338 3.0 8.0 0.00 0.00 0.00 78 1006.5
20240521080038 63 2 2.0 7.0 0.00 0.00 0.00 78 1006.3
20240521075038 63 355 2.0 7.0 0.00 0.00 0.00 78 1006.4
20240521074038 63 1 2.0 5.0 0.00 0.00 0.00 79 1006.4
20240521073039 62 31 2.0 3.0 0.00 0.00 0.00 79 1006.2
20240521072039 62 356 2.0 5.0 0.00 0.00 0.00 80 1006.4
20240521071040 62 343 2.0 5.0 0.00 0.00 0.00 79 1006.4
20240521070040 62 13 1.0 3.0 0.00 0.00 0.00 79 1006.6
20240521065040 62 1 1.0 3.0 0.00 0.00 0.00 79 1006.6
20240521064042 62 39 0.0 2.0 0.00 0.00 0.00 79 1006.4
20240521063101 62 46 0.0 3.0 0.00 0.00 0.00 79 1006.5
20240521062041 62 36 0.0 2.0 0.00 0.00 0.00 79 1006.5
20240521061041 61 17 1.0 2.0 0.00 0.00 0.00 81 1006.4
20240521060042 61 2 1.0 3.0 0.00 0.00 0.00 81 1006.2
20240521055042 61 22 1.0 3.0 0.00 0.00 0.00 82 1006.2
20240521054043 60 36 0.0 1.0 0.00 0.00 0.00 86 1006.0
20240521053044 59 37 0.0 2.0 0.00 0.00 0.00 87 1006.1
20240521052145 58 26 1.0 2.0 0.00 0.00 0.00 88 1005.8
20240521051045 58 352 2.0 3.0 0.00 0.00 0.00 88 1005.8
20240521050045 57 358 1.0 2.0 0.00 0.00 0.00 89 1006.0
20240521045106 57 34 0.0 1.0 0.00 0.00 0.00 90 1005.9
20240521044126 57 44 0.0 1.0 0.00 0.00 0.00 90 1005.9
20240521043106 57 0.0 0.0 0.00 0.00 0.00 90 1005.9
20240521042047 56 49 0.0 1.0 0.00 0.00 0.00 90 1005.7
20240521041047 56 22 0.0 2.0 0.00 0.00 0.00 90 1005.6
20240521040108 56 38 0.0 1.0 0.00 0.00 0.00 89 1005.8
20240521035108 56 20 1.0 2.0 0.00 0.00 0.00 89 1005.6
20240521034050 56 0.0 0.0 0.00 0.00 0.00 89 1005.6
20240521033050 56 0.0 0.0 0.00 0.00 0.00 89 1005.6
20240521032049 56 0.0 0.0 0.00 0.00 0.00 89 1005.6
20240521031050 56 0.0 0.0 0.00 0.00 0.00 87 1005.5
20240521030050 56 0.0 0.0 0.00 0.00 0.00 87 1005.7
20240521025050 57 0.0 0.0 0.00 0.00 0.00 86 1005.6
20240521024050 57 0.0 0.0 0.00 0.00 0.00 84 1005.8
20240521023052 57 0.0 0.0 0.00 0.00 0.00 84 1005.7
20240521021559 57 0.0 0.0 0.00 0.00 0.00 84 1005.9
20240521020552 58 53 0.0 1.0 0.00 0.00 0.00 83 1006.0
20240521015552 57 58 0.0 1.0 0.00 0.00 0.00 83 1006.1
20240521014552 58 0.0 1.0 0.00 0.00 0.00 83 1006.2
20240521013553 58 49 0.0 1.0 0.00 0.00 0.00 82 1006.2
20240521012554 58 0.0 1.0 0.00 0.00 0.00 82 1006.4
20240521011554 58 0.0 0.0 0.00 0.00 0.00 82 1006.3
20240521010554 58 44 0.0 1.0 0.00 0.00 0.00 81 1006.3
20240521005616 58 60 0.0 1.0 0.00 0.00 0.00 80 1006.6
20240521004556 59 0.0 0.0 0.00 0.00 0.00 80 1006.6
20240521003557 59 45 0.0 1.0 0.00 0.00 0.00 79 1006.6
20240521002557 59 60 0.0 1.0 0.00 0.00 0.00 79 1006.7
20240521001557 59 53 0.0 1.0 0.00 0.00 0.00 78 1006.7
20240521000557 59 53 0.0 1.0 0.00 0.00 0.00 79 1007.0
20240520235557 59 50 0.0 1.0 0.00 0.00 0.00 79 1007.0
20240520234559 59 0.0 0.0 0.00 0.00 0.00 78 1007.1
20240520233559 60 43 0.0 2.0 0.00 0.00 0.00 77 1007.1
20240520232600 60 43 0.0 1.0 0.00 0.00 0.00 77 1007.2
20240520231600 60 46 0.0 2.0 0.00 0.00 0.00 76 1007.2
20240520230600 60 34 0.0 2.0 0.00 0.00 0.00 74 1007.4
20240520225621 61 0.0 1.0 0.00 0.00 0.00 74 1007.6
20240520224602 62 50 0.0 2.0 0.00 0.00 0.00 71 1007.6
20240520223622 61 51 1.0 2.0 0.00 0.00 0.00 71 1007.7
20240520222602 62 45 1.0 3.0 0.00 0.00 0.00 71 1007.8
20240520221602 62 47 2.0 5.0 0.00 0.00 0.00 70 1008.0
20240520220536 62 44 1.0 3.0 0.00 0.00 0.00 70 1008.0
20240520215556 63 52 1.0 2.0 0.00 0.00 0.00 70 1007.9
20240520214555 63 62 1.0 2.0 0.00 0.00 0.00 70 1008.0
20240520213536 63 53 1.0 3.0 0.00 0.00 0.00 69 1008.0
20240520212537 63 42 1.0 2.0 0.00 0.02 0.00 70 1008.1
20240520211537 64 41 1.0 3.0 0.00 0.03 0.00 69 1008.1
20240520210538 64 38 1.0 3.0 0.00 0.04 0.00 68 1008.2
20240520205558 63 41 1.0 3.0 0.00 0.04 0.00 68 1008.4
20240520204539 63 38 1.0 2.0 0.00 0.04 0.00 69 1008.4
20240520203538 63 41 0.0 2.0 0.00 0.04 0.00 70 1008.6
20240520202559 63 41 0.0 2.0 0.00 0.04 0.00 70 1008.5
20240520201540 64 48 0.0 1.0 0.00 0.15 0.00 69 1008.6
20240520200540 64 60 1.0 3.0 0.00 0.15 0.00 67 1008.6
20240520195540 64 59 0.0 1.0 0.00 0.19 0.00 68 1008.6
20240520194541 65 55 0.0 5.0 0.00 0.19 0.00 67 1008.6
20240520193541 64 29 1.0 3.0 0.00 0.19 0.00 68 1008.6
20240520192542 65 44 0.0 1.0 0.00 0.19 0.00 68 1008.9
20240520191542 65 52 0.0 1.0 0.00 0.19 0.00 67 1008.8
20240520190542 65 42 1.0 2.0 0.00 0.19 0.00 66 1008.8
20240520185543 65 36 1.0 1.0 0.00 0.19 0.00 66 1008.9
20240520184543 66 53 0.0 2.0 0.00 0.19 0.00 65 1008.9
20240520183604 67 49 1.0 2.0 0.00 0.19 0.00 64 1009.0
20240520182544 67 57 1.0 2.0 0.00 0.19 0.00 63 1009.0
20240520181545 68 43 1.0 3.0 0.00 0.19 0.00 61 1008.9
20240520180545 68 64 1.0 6.0 0.00 0.19 0.00 61 1009.0
20240520175545 68 37 1.0 5.0 0.00 0.19 0.00 62 1008.8
20240520174546 69 43 2.0 5.0 0.00 0.19 0.00 61 1008.8
20240520173546 70 40 2.0 5.0 0.00 0.19 0.00 61 1008.8
20240520172547 70 37 2.0 7.0 0.00 0.19 0.00 60 1008.8
20240520171547 70 61 2.0 5.0 0.00 0.19 0.00 60 1008.9
20240520170547 71 51 2.0 7.0 0.00 0.19 0.00 58 1008.8
20240520165548 71 42 2.0 7.0 0.00 0.19 0.00 57 1009.0
20240520164549 72 43 2.0 7.0 0.00 0.19 0.00 56 1009.0
20240520163549 72 41 3.0 6.0 0.00 0.19 0.00 54 1009.0
20240520162609 72 45 2.0 7.0 0.00 0.19 0.00 54 1008.8
20240520161649 72 49 3.0 8.0 0.00 0.19 0.00 55 1008.9
20240520160550 72 50 2.0 7.0 0.00 0.19 0.00 56 1008.8
20240520155551 72 39 3.0 8.0 0.00 0.19 0.00 56 1008.9
20240520154552 73 42 3.0 8.0 0.00 0.19 0.00 55 1009.0
20240520153552 73 49 4.0 8.0 0.00 0.19 0.00 55 1009.1
20240520152552 73 43 3.0 8.0 0.00 0.19 0.00 56 1009.3
20240520151553 73 41 3.0 10.0 0.00 0.19 0.00 56 1009.2
20240520150553 73 52 4.0 9.0 0.00 0.19 0.00 57 1009.3
20240520145635 73 46 4.0 10.0 0.00 0.19 0.00 57 1009.4
20240520144553 74 54 2.0 7.0 0.00 0.19 0.00 56 1009.7
20240520143554 73 39 3.0 8.0 0.00 0.19 0.00 55 1009.7
20240520142554 73 153 3.0 8.0 0.00 0.19 0.00 55 1009.9
20240520141615 74 57 2.0 7.0 0.00 0.19 0.00 54 1009.7
20240520140557 74 43 2.0 6.0 0.00 0.19 0.00 55 1009.8
20240520135616 74 47 4.0 10.0 0.00 0.19 0.00 55 1009.8
20240520134556 75 55 2.0 7.0 0.00 0.19 0.00 54 1010.1
20240520133557 74 125 3.0 10.0 0.00 0.19 0.00 54 1010.0
20240520132556 74 41 3.0 7.0 0.00 0.19 0.00 52 1010.1
20240520131558 74 88 2.0 6.0 0.00 0.19 0.00 50 1010.3
20240520130617 74 24 3.0 8.0 0.00 0.19 0.00 51 1010.4
20240520125638 73 80 3.0 8.0 0.00 0.19 0.00 52 1010.6
20240520124558 73 48 3.0 8.0 0.00 0.19 0.00 53 1010.6
20240520123638 73 37 3.0 7.0 0.00 0.19 0.00 56 1010.6
20240520122559 72 44 3.0 9.0 0.00 0.19 0.00 56 1010.7
20240520121559 73 18 3.0 7.0 0.00 0.19 0.00 57 1011.0
20240520120601 72 41 3.0 7.0 0.00 0.19 0.00 59 1011.3
20240520115600 72 43 3.0 7.0 0.00 0.19 0.00 60 1011.5
20240520114601 72 44 3.0 7.0 0.00 0.19 0.00 59 1011.3
20240520113601 71 29 3.0 6.0 0.00 0.19 0.00 61 1011.4
20240520112602 71 62 2.0 6.0 0.00 0.19 0.00 59 1011.4
20240520111602 71 27 2.0 6.0 0.00 0.19 0.00 59 1011.6
20240520110602 71 32 3.0 5.0 0.00 0.19 0.00 61 1011.5